TimeEST,TemperatureF,Dew PointF,Humidity,Sea Level PressureIn,VisibilityMPH,Wind Direction,Wind SpeedMPH,Gust SpeedMPH,PrecipitationIn,Events,Conditions,WindDirDegrees,DateUTC
12:53 AM,64.9,63.0,93,30.04,10.0,WNW,3.5,-,N/A,,Clear,290,2013-01-22 05:53:00
1:53 AM,64.9,63.0,93,30.03,10.0,WNW,3.5,-,N/A,,Clear,290,2013-01-22 06:53:00
2:53 AM,64.9,63.0,93,30.03,10.0,WNW,6.9,-,N/A,,Clear,300,2013-01-22 07:53:00
3:53 AM,64.9,62.1,90,30.03,10.0,NW,4.6,-,N/A,,Overcast,310,2013-01-22 08:53:00
4:53 AM,64.0,61.0,90,30.03,10.0,WNW,4.6,-,N/A,,Clear,290,2013-01-22 09:53:00
5:53 AM,63.0,60.1,90,30.06,10.0,WNW,3.5,-,N/A,,Scattered Clouds,300,2013-01-22 10:53:00
6:53 AM,63.0,59.0,87,30.07,10.0,WNW,5.8,-,N/A,,Scattered Clouds,300,2013-01-22 11:53:00
7:53 AM,63.0,57.9,84,30.10,10.0,WNW,5.8,-,N/A,,Scattered Clouds,300,2013-01-22 12:53:00
8:53 AM,66.0,57.9,75,30.12,10.0,NNW,6.9,-,N/A,,Mostly Cloudy,340,2013-01-22 13:53:00
9:53 AM,69.1,57.9,68,30.14,10.0,NNW,9.2,17.3,N/A,,Mostly Cloudy,340,2013-01-22 14:53:00
10:53 AM,73.0,57.9,59,30.14,10.0,NNW,10.4,-,N/A,,Mostly Cloudy,330,2013-01-22 15:53:00
11:53 AM,75.0,57.9,55,30.13,10.0,North,9.2,-,N/A,,Mostly Cloudy,10,2013-01-22 16:53:00
12:53 PM,75.9,57.9,54,30.11,10.0,North,9.2,17.3,N/A,,Mostly Cloudy,10,2013-01-22 17:53:00
1:53 PM,75.9,57.0,52,30.10,10.0,NNW,11.5,17.3,N/A,,Mostly Cloudy,340,2013-01-22 18:53:00
2:53 PM,75.0,55.9,51,30.10,10.0,NNE,9.2,18.4,N/A,,Mostly Cloudy,20,2013-01-22 19:53:00
3:53 PM,73.0,57.0,57,30.12,10.0,North,8.1,18.4,N/A,,Scattered Clouds,350,2013-01-22 20:53:00
4:53 PM,72.0,55.9,57,30.14,10.0,North,8.1,18.4,N/A,,Scattered Clouds,350,2013-01-22 21:53:00
5:53 PM,70.0,55.9,61,30.16,10.0,NNW,5.8,-,N/A,,Scattered Clouds,340,2013-01-22 22:53:00
6:53 PM,70.0,54.0,57,30.17,10.0,NNE,4.6,-,N/A,,Scattered Clouds,20,2013-01-22 23:53:00
7:53 PM,70.0,53.1,55,30.18,10.0,North,8.1,-,N/A,,Scattered Clouds,10,2013-01-23 00:53:00
8:53 PM,69.1,52.0,54,30.19,10.0,NNE,6.9,-,N/A,,Partly Cloudy,30,2013-01-23 01:53:00
9:53 PM,69.1,52.0,54,30.22,10.0,NNE,8.1,-,N/A,,Partly Cloudy,20,2013-01-23 02:53:00
10:53 PM,69.1,52.0,54,30.21,10.0,NNE,8.1,-,N/A,,Mostly Cloudy,30,2013-01-23 03:53:00
11:53 PM,69.1,53.1,57,30.21,10.0,NNE,11.5,17.3,N/A,,Partly Cloudy,30,2013-01-23 04:53:00